This is the latest recevied weather packets stored in our database for station/object DL5TW-13. If no packets are shown the sender has not sent any weather packets the latest 10 day(s).
| Time | Temp. | Humidity | Pressure | Rain* | Wind** | Luminosity | Snow |
|---|---|---|---|---|---|---|---|
| 1777614544 | 10.56° C | 66% | 1024.1 hPa | 0 mm | - | - | - |
| 1777614244 | 10° C | 68% | 1024.2 hPa | 0 mm | - | - | - |
| 1777613944 | 9.44° C | 68% | 1024.2 hPa | 0 mm | - | - | - |
| 1777613644 | 8.89° C | 71% | 1024.2 hPa | 0 mm | - | - | - |
| 1777613343 | 7.78° C | 73% | 1024.1 hPa | 0 mm | - | - | - |
| 1777613043 | 7.22° C | 74% | 1024.3 hPa | 0 mm | - | - | - |
| 1777612743 | 6.67° C | 76% | 1024.1 hPa | 0 mm | - | - | - |
| 1777612442 | 5.56° C | 79% | 1024.1 hPa | 0 mm | - | - | - |
| 1777612142 | 5° C | 79% | 1024.1 hPa | 0 mm | - | - | - |
| 1777611842 | 4.44° C | 80% | 1024.1 hPa | 0 mm | - | - | - |
| 1777611542 | 4.44° C | 80% | 1024 hPa | 0 mm | - | - | - |
| 1777611241 | 3.89° C | 81% | 1024.1 hPa | 0 mm | - | - | - |
| 1777610941 | 3.33° C | 81% | 1024.2 hPa | 0 mm | - | - | - |
| 1777610641 | 3.33° C | 81% | 1024 hPa | 0 mm | - | - | - |
| 1777610340 | 2.78° C | 81% | 1023.9 hPa | 0 mm | - | - | - |
| 1777610040 | 2.78° C | 82% | 1024.1 hPa | 0 mm | - | - | - |
| 1777609740 | 1.67° C | 82% | 1024.2 hPa | 0 mm | - | - | - |
| 1777609440 | 1.67° C | 82% | 1024.1 hPa | 0 mm | - | - | - |
| 1777609139 | 1.11° C | 82% | 1024 hPa | 0 mm | - | - | - |
| 1777608839 | 1.11° C | 81% | 1024.2 hPa | 0 mm | - | - | - |
| 1777608539 | 0.56° C | 81% | 1024.1 hPa | 0 mm | - | - | - |
| 1777608239 | 0.56° C | 81% | 1024 hPa | 0 mm | - | - | - |
| 1777607938 | 0.56° C | 81% | 1024.1 hPa | 0 mm | - | - | - |
| 1777607638 | 0.56° C | 81% | 1024 hPa | 0 mm | - | - | - |
| 1777607338 | 0.56° C | 80% | 1023.9 hPa | 0 mm | - | - | - |
* Rain latest hour (hover to see other rain measurements)
** Current wind speed in m/s (hover to see current wind gust speed)